Time,TemperatureF,DewpointF,PressureIn,WindDirection,WindDirectionDegrees,WindSpeedMPH,WindSpeedGustMPH,Humidity,HourlyPrecipIn,Conditions,Clouds,dailyrainin,SoftwareType,DateUTC
2013-01-09 00:09:00,42.8,23.0,30.22,ESE,117,1.0,-999.0,46,-99.99,,,0.00,weatherlink.com 1.10,2013-01-09 05:09:00,
2013-01-09 00:24:00,43.8,22.0,30.21,SE,124,4.0,-999.0,43,-99.99,,,0.00,weatherlink.com 1.10,2013-01-09 05:24:00,
2013-01-09 00:39:00,43.6,22.0,30.21,SE,130,2.0,-999.0,43,-99.99,,,0.00,weatherlink.com 1.10,2013-01-09 05:39:00,
2013-01-09 00:54:00,44.2,22.0,30.21,ESE,113,5.0,-999.0,41,-99.99,,,0.00,weatherlink.com 1.10,2013-01-09 05:54:00,
2013-01-09 01:09:00,44.5,21.0,30.21,SE,131,0.0,-999.0,39,-99.99,,,0.01,weatherlink.com 1.10,2013-01-09 06:09:00,
2013-01-09 01:24:00,44.5,21.0,30.20,SE,145,1.0,-999.0,39,-99.99,,,0.01,weatherlink.com 1.10,2013-01-09 06:24:00,
2013-01-09 01:39:00,44.6,21.0,30.19,SSE,148,1.0,-999.0,39,-99.99,,,0.01,weatherlink.com 1.10,2013-01-09 06:39:00,
2013-01-09 01:54:00,44.9,23.0,30.18,SSE,168,10.0,-999.0,42,-99.99,,,0.01,weatherlink.com 1.10,2013-01-09 06:54:00,
2013-01-09 02:09:00,44.8,24.0,30.18,SE,126,6.0,-999.0,44,-99.99,,,0.01,weatherlink.com 1.10,2013-01-09 07:09:00,
2013-01-09 02:24:00,45.4,24.0,30.18,SE,131,6.0,-999.0,44,-99.99,,,0.01,weatherlink.com 1.10,2013-01-09 07:24:00,
2013-01-09 02:39:00,46.0,24.0,30.18,SE,134,5.0,-999.0,43,-99.99,,,0.02,weatherlink.com 1.10,2013-01-09 07:39:00,
2013-01-09 02:54:00,46.4,25.0,30.18,SSE,158,5.0,-999.0,43,-99.99,,,0.02,weatherlink.com 1.10,2013-01-09 07:54:00,
2013-01-09 03:09:00,47.0,25.0,30.19,South,171,2.0,-999.0,43,-99.99,,,0.02,weatherlink.com 1.10,2013-01-09 08:09:00,
2013-01-09 03:24:00,47.0,25.0,30.19,SSE,148,5.0,-999.0,43,-99.99,,,0.02,weatherlink.com 1.10,2013-01-09 08:24:00,
2013-01-09 03:39:00,47.0,25.0,30.19,SE,136,0.0,-999.0,43,-99.99,,,0.03,weatherlink.com 1.10,2013-01-09 08:39:00,
2013-01-09 03:54:00,47.4,25.0,30.19,SE,144,2.0,-999.0,42,-99.99,,,0.03,weatherlink.com 1.10,2013-01-09 08:54:00,
2013-01-09 04:09:00,47.4,25.0,30.19,SSE,158,5.0,-999.0,42,-99.99,,,0.03,weatherlink.com 1.10,2013-01-09 09:09:00,
2013-01-09 04:24:00,47.3,27.0,30.18,SSE,160,3.0,-999.0,45,-99.99,,,0.04,weatherlink.com 1.10,2013-01-09 09:24:00,
2013-01-09 04:39:00,46.4,27.0,30.18,South,176,7.0,-999.0,47,-99.99,,,0.04,weatherlink.com 1.10,2013-01-09 09:39:00,
2013-01-09 04:54:00,47.0,28.0,30.18,South,169,0.0,-999.0,47,-99.99,,,0.04,weatherlink.com 1.10,2013-01-09 09:54:00,
2013-01-09 05:09:00,47.4,26.0,30.18,SSE,157,3.0,-999.0,44,-99.99,,,0.04,weatherlink.com 1.10,2013-01-09 10:09:00,
2013-01-09 05:24:00,47.7,26.0,30.18,SE,145,3.0,-999.0,43,-99.99,,,0.05,weatherlink.com 1.10,2013-01-09 10:24:00,
2013-01-09 05:39:00,47.4,27.0,30.19,SSE,148,3.0,-999.0,45,-99.99,,,0.05,weatherlink.com 1.10,2013-01-09 10:39:00,
2013-01-09 05:54:00,47.9,28.0,30.18,SSE,167,0.0,-999.0,46,-99.99,,,0.05,weatherlink.com 1.10,2013-01-09 10:54:00,
2013-01-09 06:09:00,48.2,28.0,30.18,South,185,8.0,-999.0,45,-99.99,,,0.05,weatherlink.com 1.10,2013-01-09 11:09:00,
2013-01-09 06:24:00,48.5,29.0,30.18,SSW,206,6.0,-999.0,47,-99.99,,,0.06,weatherlink.com 1.10,2013-01-09 11:24:00,
2013-01-09 06:39:00,48.6,31.0,30.17,South,176,6.0,-999.0,50,-99.99,,,0.06,weatherlink.com 1.10,2013-01-09 11:39:00,
2013-01-09 06:54:00,48.8,28.0,30.18,South,178,6.0,-999.0,45,-99.99,,,0.06,weatherlink.com 1.10,2013-01-09 11:54:00,
2013-01-09 07:09:00,48.5,28.0,30.18,South,186,1.0,-999.0,45,-99.99,,,0.07,weatherlink.com 1.10,2013-01-09 12:09:00,
2013-01-09 07:24:00,48.6,29.0,30.19,South,172,3.0,-999.0,47,-99.99,,,0.07,weatherlink.com 1.10,2013-01-09 12:24:00,
2013-01-09 07:54:00,49.2,32.0,30.18,South,186,5.0,-999.0,51,-99.99,,,0.08,weatherlink.com 1.10,2013-01-09 12:54:00,
2013-01-09 08:09:00,49.2,32.0,30.20,SSE,150,2.0,-999.0,51,-99.99,,,0.08,weatherlink.com 1.10,2013-01-09 13:09:00,
2013-01-09 08:24:00,48.9,32.0,30.21,SSW,205,5.0,-999.0,52,-99.99,,,0.08,weatherlink.com 1.10,2013-01-09 13:24:00,
2013-01-09 08:39:00,48.6,32.0,30.21,SSE,167,11.0,-999.0,54,-99.99,,,0.08,weatherlink.com 1.10,2013-01-09 13:39:00,
2013-01-09 08:54:00,48.3,33.0,30.22,SSW,208,4.0,-999.0,55,-99.99,,,0.09,weatherlink.com 1.10,2013-01-09 13:54:00,
2013-01-09 09:09:00,48.3,33.0,30.22,South,182,2.0,-999.0,55,-99.99,,,0.09,weatherlink.com 1.10,2013-01-09 14:09:00,
2013-01-09 09:24:00,48.2,33.0,30.22,South,186,7.0,-999.0,56,-99.99,,,0.09,weatherlink.com 1.10,2013-01-09 14:24:00,
2013-01-09 09:39:00,48.0,33.0,30.23,South,186,7.0,-999.0,56,-99.99,,,0.09,weatherlink.com 1.10,2013-01-09 14:39:00,
2013-01-09 09:54:00,48.0,33.0,30.23,SSW,205,10.0,-999.0,57,-99.99,,,0.09,weatherlink.com 1.10,2013-01-09 14:54:00,
2013-01-09 10:09:00,48.0,34.0,30.24,South,174,3.0,-999.0,58,-99.99,,,0.09,weatherlink.com 1.10,2013-01-09 15:09:00,
2013-01-09 10:25:00,47.9,34.0,30.25,South,174,3.0,-999.0,59,-99.99,,,0.09,weatherlink.com 1.10,2013-01-09 15:25:00,
2013-01-09 10:40:00,47.6,34.0,30.27,SSW,212,2.0,-999.0,59,-99.99,,,0.09,weatherlink.com 1.10,2013-01-09 15:40:00,
2013-01-09 10:55:00,47.1,34.0,30.27,South,175,4.0,-999.0,60,-99.99,,,0.09,weatherlink.com 1.10,2013-01-09 15:55:00,
2013-01-09 11:10:00,47.6,34.0,30.25,SSW,205,6.0,-999.0,59,-99.99,,,0.09,weatherlink.com 1.10,2013-01-09 16:10:00,
2013-01-09 11:25:00,47.9,34.0,30.23,South,186,3.0,-999.0,60,-99.99,,,0.09,weatherlink.com 1.10,2013-01-09 16:25:00,
2013-01-09 11:40:00,47.0,36.0,30.23,SSE,155,6.0,-999.0,65,-99.99,,,0.10,weatherlink.com 1.10,2013-01-09 16:40:00,
2013-01-09 11:55:00,46.2,37.0,30.21,SE,131,3.0,-999.0,69,-99.99,,,0.10,weatherlink.com 1.10,2013-01-09 16:55:00,
2013-01-09 12:10:00,46.0,37.0,30.20,South,178,3.0,-999.0,72,-99.99,,,0.12,weatherlink.com 1.10,2013-01-09 17:10:00,
2013-01-09 12:25:00,45.4,38.0,30.20,SSE,157,10.0,-999.0,76,-99.99,,,0.13,weatherlink.com 1.10,2013-01-09 17:25:00,
2013-01-09 12:40:00,45.1,39.0,30.18,SE,137,10.0,-999.0,78,-99.99,,,0.14,weatherlink.com 1.10,2013-01-09 17:40:00,
2013-01-09 12:55:00,46.2,40.0,30.16,South,174,5.0,-999.0,78,-99.99,,,0.14,weatherlink.com 1.10,2013-01-09 17:55:00,
2013-01-09 13:10:00,46.4,40.0,30.17,SSW,195,7.0,-999.0,77,-99.99,,,0.14,weatherlink.com 1.10,2013-01-09 18:10:00,
2013-01-09 13:25:00,45.8,40.0,30.18,WSW,247,3.0,-999.0,79,-99.99,,,0.14,weatherlink.com 1.10,2013-01-09 18:25:00,
2013-01-09 13:40:00,44.9,40.0,30.20,WSW,241,6.0,-999.0,82,-99.99,,,0.14,weatherlink.com 1.10,2013-01-09 18:40:00,
2013-01-09 13:55:00,44.1,40.0,30.20,NW,319,3.0,-999.0,85,-99.99,,,0.14,weatherlink.com 1.10,2013-01-09 18:55:00,
2013-01-09 14:10:00,43.8,40.0,30.21,WSW,251,2.0,-999.0,87,-99.99,,,0.14,weatherlink.com 1.10,2013-01-09 19:10:00,
2013-01-09 14:25:00,43.6,40.0,30.21,SSW,210,5.0,-999.0,88,-99.99,,,0.14,weatherlink.com 1.10,2013-01-09 19:25:00,
2013-01-09 14:40:00,43.9,41.0,30.21,SSW,212,1.0,-999.0,89,-99.99,,,0.14,weatherlink.com 1.10,2013-01-09 19:40:00,
2013-01-09 14:55:00,44.1,41.0,30.21,SSW,199,3.0,-999.0,90,-99.99,,,0.14,weatherlink.com 1.10,2013-01-09 19:55:00,
2013-01-09 15:10:00,44.2,42.0,30.21,SSW,206,2.0,-999.0,90,-99.99,,,0.14,weatherlink.com 1.10,2013-01-09 20:10:00,
2013-01-09 15:25:00,44.3,42.0,30.21,SW,230,2.0,-999.0,90,-99.99,,,0.14,weatherlink.com 1.10,2013-01-09 20:25:00,
2013-01-09 15:40:00,44.5,42.0,30.22,SW,226,8.0,-999.0,90,-99.99,,,0.14,weatherlink.com 1.10,2013-01-09 20:40:00,
2013-01-09 15:55:00,45.1,42.0,30.21,SSW,212,3.0,-999.0,88,-99.99,,,0.14,weatherlink.com 1.10,2013-01-09 20:55:00,
2013-01-09 16:10:00,45.5,42.0,30.23,South,182,8.0,-999.0,87,-99.99,,,0.14,weatherlink.com 1.10,2013-01-09 21:10:00,
2013-01-09 16:25:00,45.4,41.0,30.22,SSW,213,4.0,-999.0,85,-99.99,,,0.14,weatherlink.com 1.10,2013-01-09 21:25:00,
2013-01-09 16:40:00,45.1,41.0,30.22,WSW,237,3.0,-999.0,84,-99.99,,,0.14,weatherlink.com 1.10,2013-01-09 21:40:00,
2013-01-09 16:55:00,45.1,40.0,30.22,WSW,237,4.0,-999.0,82,-99.99,,,0.14,weatherlink.com 1.10,2013-01-09 21:55:00,
2013-01-09 17:10:00,44.8,40.0,30.24,SSW,210,1.0,-999.0,82,-99.99,,,0.14,weatherlink.com 1.10,2013-01-09 22:10:00,
2013-01-09 17:25:00,44.5,39.0,30.25,SW,229,2.0,-999.0,82,-99.99,,,0.14,weatherlink.com 1.10,2013-01-09 22:25:00,
2013-01-09 17:40:00,44.2,39.0,30.26,SW,215,1.0,-999.0,82,-99.99,,,0.14,weatherlink.com 1.10,2013-01-09 22:40:00,
2013-01-09 17:55:00,44.1,39.0,30.27,SW,230,5.0,-999.0,82,-99.99,,,0.14,weatherlink.com 1.10,2013-01-09 22:55:00,
2013-01-09 18:10:00,43.9,39.0,30.28,SSW,199,3.0,-999.0,82,-99.99,,,0.14,weatherlink.com 1.10,2013-01-09 23:10:00,
2013-01-09 18:25:00,43.9,39.0,30.28,South,188,6.0,-999.0,83,-99.99,,,0.14,weatherlink.com 1.10,2013-01-09 23:25:00,
2013-01-09 18:40:00,43.9,39.0,30.28,South,188,7.0,-999.0,82,-99.99,,,0.14,weatherlink.com 1.10,2013-01-09 23:40:00,
2013-01-09 18:55:00,44.1,39.0,30.29,South,174,5.0,-999.0,82,-99.99,,,0.14,weatherlink.com 1.10,2013-01-09 23:55:00,
2013-01-09 19:10:00,44.1,39.0,30.30,SSE,165,2.0,-999.0,81,-99.99,,,0.14,weatherlink.com 1.10,2013-01-10 00:10:00,
2013-01-09 19:25:00,44.1,39.0,30.31,South,186,5.0,-999.0,81,-99.99,,,0.14,weatherlink.com 1.10,2013-01-10 00:25:00,
2013-01-09 19:40:00,43.9,38.0,30.32,South,185,9.0,-999.0,81,-99.99,,,0.14,weatherlink.com 1.10,2013-01-10 00:40:00,
2013-01-09 19:55:00,43.8,38.0,30.32,SW,224,2.0,-999.0,81,-99.99,,,0.14,weatherlink.com 1.10,2013-01-10 00:55:00,
2013-01-09 20:10:00,43.6,38.0,30.34,WSW,254,2.0,-999.0,82,-99.99,,,0.14,weatherlink.com 1.10,2013-01-10 01:10:00,
2013-01-09 20:38:00,43.6,38.0,30.35,WSW,244,6.0,-999.0,81,-99.99,,,0.14,weatherlink.com 1.10,2013-01-10 01:38:00,
2013-01-09 20:56:00,43.3,38.0,30.35,WSW,243,2.0,-999.0,81,-99.99,,,0.14,weatherlink.com 1.10,2013-01-10 01:56:00,
2013-01-09 21:11:00,43.3,39.0,30.36,SSW,212,1.0,-999.0,83,-99.99,,,0.14,weatherlink.com 1.10,2013-01-10 02:11:00,
2013-01-09 21:41:00,42.8,38.0,30.37,SSW,196,1.0,-999.0,84,-99.99,,,0.14,weatherlink.com 1.10,2013-01-10 02:41:00,
2013-01-09 21:56:00,42.6,38.0,30.37,South,186,0.0,-999.0,85,-99.99,,,0.14,weatherlink.com 1.10,2013-01-10 02:56:00,
2013-01-09 22:11:00,42.3,38.0,30.37,South,186,0.0,-999.0,86,-99.99,,,0.14,weatherlink.com 1.10,2013-01-10 03:11:00,
2013-01-09 22:26:00,42.2,38.0,30.38,WSW,257,3.0,-999.0,86,-99.99,,,0.14,weatherlink.com 1.10,2013-01-10 03:26:00,
2013-01-09 22:41:00,41.9,38.0,30.39,SSW,198,0.0,-999.0,86,-99.99,,,0.14,weatherlink.com 1.10,2013-01-10 03:41:00,
2013-01-09 22:56:00,41.6,38.0,30.39,SW,217,2.0,-999.0,86,-99.99,,,0.14,weatherlink.com 1.10,2013-01-10 03:56:00,
2013-01-09 23:11:00,41.5,38.0,30.40,West,261,2.0,-999.0,87,-99.99,,,0.14,weatherlink.com 1.10,2013-01-10 04:11:00,
2013-01-09 23:26:00,41.3,38.0,30.39,WSW,237,5.0,-999.0,87,-99.99,,,0.14,weatherlink.com 1.10,2013-01-10 04:26:00,
2013-01-09 23:41:00,40.9,37.0,30.40,WSW,237,5.0,-999.0,86,-99.99,,,0.14,weatherlink.com 1.10,2013-01-10 04:41:00,
2013-01-09 23:56:00,40.5,37.0,30.40,WSW,240,0.0,-999.0,86,-99.99,,,0.14,weatherlink.com 1.10,2013-01-10 04:56:00,